Pittsburgh Allegheny Co., PA

1:49 PM EST on November 14, 2019 (GMT -0500)
Allegheny County

Weather History for KAGC - October, 2019

Change the Weather History Date:

Sunday, October 20, 2019

  Actual Average Record
Temperature  
Mean Temperature 58 °F -  
Max Temperature 68 °F 54 °F 80 °F (2016)
Min Temperature 50 °F 36 °F 25 °F (1992)
Degree Days  
Heating Degree Days 7    
Growing Degree Days 8 (Base 50)    
Moisture  
Dew Point 47 °F    
Average Humidity 68    
Maximum Humidity 86    
Minimum Humidity 52    
Precipitation  
Precipitation 0.00 in - - ()
Sea Level Pressure  
Sea Level Pressure 29.92 in    
Wind  
Wind Speed 4 mph (ESE)    
Max Wind Speed 7 mph    
Max Gust Speed -    
Visibility 10 miles    
Events      
Averages and records for this station are not official NWS values.
T = Trace of Precipitation, MM = Missing Value Source: NWS Daily Summary

Daily Weather History Graph

Daily Weather History Graph

Search for Another Location

Airport or City:

Astronomy

Oct. 20, 2019 Rise Set
Actual Time 7:35 AM EDT 6:32 PM EDT
Civil Twilight 7:08 AM EDT 7:00 PM EDT
Nautical Twilight 6:36 AM EDT 7:32 PM EDT
Astronomical Twilight 6:04 AM EDT 8:03 PM EDT
Moon 11:39 PM EDT (10/20) 2:02 PM EDT (10/20)
Length of Visible Light 11h 52m
Length of Day
10h 57m
Waning Gibbous, 59% of the Moon is Illuminated
Oct 20
Waning Gibbous
Oct 21
Last Quarter
Oct 27
New
Nov 4
First Quarter
Nov 12
Full

Hourly Weather History & Observations

Time (EDT) Temp. Dew Point Humidity Pressure Visibility Wind Dir Wind Speed Gust Speed Precip Events Conditions
12:53 AM 52.0 °F 43.0 °F 71% 29.90 in 10.0 mi SSE 6.9 mph - N/A   Clear
1:53 AM 50.0 °F 45.0 °F 83% 29.88 in 8.0 mi SSE 4.6 mph - N/A   Clear
2:53 AM 51.1 °F 44.1 °F 77% 29.87 in 10.0 mi East 3.5 mph - N/A   Mostly Cloudy
3:53 AM 52.0 °F 43.0 °F 71% 29.87 in 10.0 mi SE 3.5 mph - N/A   Scattered Clouds
4:53 AM 51.1 °F 44.1 °F 77% 29.87 in 10.0 mi East 4.6 mph - N/A   Overcast
5:53 AM 52.0 °F 44.1 °F 74% 29.89 in 10.0 mi ESE 3.5 mph - N/A   Overcast
6:53 AM 51.1 °F 45.0 °F 80% 29.88 in 10.0 mi SE 4.6 mph - N/A   Overcast
7:53 AM 52.0 °F 45.0 °F 77% 29.89 in 10.0 mi SSE 3.5 mph - N/A   Overcast
8:53 AM 52.0 °F 46.0 °F 80% 29.91 in 10.0 mi Calm Calm - N/A   Partly Cloudy
9:53 AM 54.0 °F 48.0 °F 80% 29.93 in 10.0 mi Calm Calm - 0.00 in   Scattered Clouds
10:53 AM 59.0 °F 48.9 °F 69% 29.93 in 10.0 mi ESE 3.5 mph - N/A   Scattered Clouds
11:53 AM 61.0 °F 46.9 °F 60% 29.92 in 10.0 mi ESE 4.6 mph - N/A   Scattered Clouds
12:53 PM 63.0 °F 48.0 °F 58% 29.91 in 10.0 mi ENE 3.5 mph - N/A   Overcast
1:53 PM 64.0 °F 48.9 °F 58% 29.91 in 10.0 mi Calm Calm - N/A   Partly Cloudy
2:53 PM 64.9 °F 48.0 °F 54% 29.90 in 10.0 mi Calm Calm - N/A   Clear
3:53 PM 66.0 °F 48.0 °F 52% 29.91 in 10.0 mi Calm Calm - N/A   Clear
4:53 PM 66.9 °F 48.9 °F 52% 29.92 in 10.0 mi SE 3.5 mph - N/A   Clear
5:53 PM 66.0 °F 48.0 °F 52% 29.92 in 10.0 mi NNW 3.5 mph - N/A   Clear
6:53 PM 62.1 °F 48.0 °F 60% 29.94 in 10.0 mi North 3.5 mph - N/A   Clear
7:53 PM 60.1 °F 48.0 °F 64% 29.95 in 10.0 mi Calm Calm - N/A   Clear
8:53 PM 62.1 °F 48.0 °F 60% 29.97 in 10.0 mi Calm Calm - N/A   Clear
9:53 PM 57.9 °F 48.9 °F 72% 29.99 in 7.0 mi North 3.5 mph - N/A   Clear
10:53 PM 55.9 °F 48.9 °F 77% 29.99 in 10.0 mi Calm Calm - N/A   Clear
11:53 PM 53.1 °F 48.9 °F 86% 30.01 in 10.0 mi ENE 3.5 mph - N/A   Clear